Volver al catálogo

STARLINK-5166

ActivoComunicacionesVLEO
NORAD 54085·PAYLOAD·🇺🇸 United States

Lanzado Oct 20, 2022 desde Cape Canaveral Space Force Station

Loading…

Próximos Pases (próximas 24 horas)

TLE

ActualizadoSource: CelesTrak SupGP

Época: Sep 14, 2026, 21:39 UTC

1 54085C 22136AL  26257.90256944  .00541300  00000+0  20129-1 0  2571
2 54085  53.1610 203.2933 0001265  94.8545 138.1859 15.26713365    16

Sigue STARLINK-5166 en tiempo real con AllMySat

Download on the App Store